Theta_e
300 300 301 302 301 301 301 302 303 303 303 300 297 298 294 295 292 305 304 304 302 293 287 292 289 288 290 295 293 294 292 290 291 291 293 289 290 292 291 290 289 290 289 290 291 292 290 292 290 293 293 294 297 298 299 299 298 294 291 292 294 306 282 285 286 289 291 294 297 298 297 296 294 294 294 291 288 288 280 277 280 280 281 278 278 282 286
299 301 302 301 300 301 302 302 303 303 303 300 299 294 294 293 293 300 305 304 304 291 280 281 284 287 292 292 289 293 293 292 290 290 291 290 290 291 291 290 290 291 291 290 288 291 285 293 293 291 294 293 299 300 300 300 297 293 293 289 295 285 285 285 280 280 282 284 287 290 294 294 289 287 290 293 292 290 285 285 282 280 282 279 280 279 285
300 301 301 300 301 302 302 302 303 303 304 304 299 292 294 292 300 299 303 308 303 290 288 286 281 288 292 294 293 294 295 294 293 291 290 292 291 291 289 291 290 289 291 290 292 294 291 289 295 295 295 294 299 300 301 303 301 305 305 308 297 290 285 282 279 275 272 272 274 277 284 286 287 289 290 291 291 289 286 283 279 278 281 281 281 283 289
301 301 300 300 301 301 302 302 302 303 303 303 299 296 294 293 284 294 298 301 299 296 297 296 293 289 291 287 290 294 291 293 292 291 292 292 293 290 292 290 289 289 292 289 290 291 293 291 290 291 290 292 296 297 303 304 302 308 310 303 296 287 289 285 280 282 281 278 279 286 288 287 285 287 289 290 289 288 285 281 277 277 281 284 288 289 288
301 300 300 300 301 301 301 302 302 303 303 303 299 296 294 297 289 287 286 296 296 293 294 294 295 288 292 284 290 289 290 291 291 293 289 292 292 291 290 290 287 286 288 287 289 290 292 294 293 292 291 294 294 297 299 302 307 310 305 304 290 287 286 289 289 288 286 288 288 290 292 289 289 288 288 290 290 290 288 280 281 284 286 282 289 291 287
301 300 301 301 301 301 302 302 302 303 303 304 301 292 296 288 289 298 296 289 284 287 287 293 293 295 295 289 291 289 289 288 286 291 292 292 292 287 290 291 290 288 287 287 285 288 288 287 286 292 291 291 292 292 297 296 302 305 299 300 291 286 284 289 290 288 290 290 290 291 291 291 290 290 289 288 290 290 288 289 290 284 279 283 290 290 286
300 300 300 300 301 301 301 302 302 303 302 303 298 293 299 294 294 295 299 289 290 291 291 295 294 292 294 288 291 289 288 288 291 290 290 290 290 288 281 286 290 290 289 286 284 283 282 283 287 287 288 289 286 287 291 296 296 299 297 296 292 290 286 288 290 288 289 289 289 290 289 289 289 289 290 290 290 290 290 289 289 289 288 290 288 287 285
300 300 299 300 300 301 302 302 303 303 302 303 297 296 294 294 294 292 296 295 293 294 293 294 293 288 295 289 289 290 289 287 289 290 288 283 288 291 287 287 289 290 290 288 285 287 287 287 282 288 287 287 285 286 287 290 293 295 295 297 295 292 286 292 288 286 287 289 289 289 288 288 286 288 289 289 290 289 289 290 290 290 287 287 286 285 284
300 299 299 300 301 302 302 302 303 302 303 298 297 298 302 301 304 303 295 289 290 293 292 290 289 286 286 285 287 289 289 287 289 288 289 288 288 289 287 289 289 289 289 288 288 291 289 289 290 290 287 285 290 286 290 291 289 290 290 291 292 291 287 290 287 285 285 288 287 287 288 287 286 285 286 286 286 284 285 285 288 288 285 286 286 284 283
299 299 299 300 300 301 302 302 303 303 303 298 297 296 303 302 307 306 298 286 292 290 290 288 287 284 285 287 288 289 288 291 289 285 290 290 290 290 290 289 289 286 287 287 289 291 290 291 291 290 291 292 291 290 291 291 290 288 291 291 287 288 288 284 283 283 283 287 287 287 286 286 283 283 286 287 287 288 288 288 289 288 290 286 285 283 288
299 299 299 300 300 301 302 302 303 303 301 296 295 295 297 296 295 298 295 286 284 286 288 284 285 290 288 292 288 290 290 290 288 284 284 290 290 291 291 290 287 283 286 290 294 292 292 291 291 290 293 294 294 292 293 294 292 292 290 287 288 291 290 285 285 281 283 286 285 287 283 278 278 288 291 291 286 287 285 284 286 288 289 286 289 288 290
299 299 299 300 301 301 302 302 303 303 302 300 300 295 299 300 297 298 290 285 285 286 286 284 284 289 289 291 290 289 289 289 289 289 287 288 291 291 290 288 286 284 291 294 292 292 294 293 292 293 293 294 294 294 294 292 293 293 291 290 288 288 286 283 284 283 282 284 284 280 274 276 287 291 291 290 289 289 287 288 289 289 289 289 288 288 288
299 299 299 300 301 301 302 302 303 303 303 302 301 295 299 301 295 295 294 291 286 286 282 285 288 289 289 289 287 287 289 289 290 290 289 289 289 289 291 289 287 290 295 292 291 289 287 286 285 286 287 287 291 293 292 292 291 293 293 292 290 284 285 280 282 282 284 282 280 276 275 285 289 289 290 292 291 289 288 286 288 290 290 289 287 288 288
299 299 300 300 301 301 301 302 303 303 304 303 299 298 299 299 296 296 292 285 285 285 288 285 287 287 288 287 286 287 288 288 287 289 289 290 288 289 292 291 293 292 290 291 288 285 284 280 280 283 283 282 282 284 288 289 290 291 291 291 292 289 285 286 282 284 282 281 280 279 285 285 286 287 288 289 286 287 285 281 284 289 290 290 288 288 288
299 299 299 300 301 301 301 302 303 303 304 304 302 300 299 299 298 296 298 291 286 286 284 282 284 287 287 287 286 283 283 283 286 285 288 290 289 291 292 292 291 291 290 289 284 283 281 279 280 278 276 277 274 279 284 284 287 290 290 289 288 287 288 283 283 279 283 281 278 280 279 277 282 287 292 294 293 291 289 286 283 290 290 292 290 288 288
299 299 299 300 300 301 301 302 303 304 304 305 302 300 300 300 299 299 296 293 287 282 286 288 289 288 285 286 287 285 282 279 282 280 281 285 288 290 292 291 291 292 292 288 282 280 278 280 275 273 272 274 279 280 279 282 283 287 287 289 290 288 287 285 284 281 283 281 279 278 277 279 285 287 290 293 294 292 289 285 281 287 290 292 291 289 289
299 299 299 300 300 301 302 302 303 304 304 304 301 300 298 300 299 297 296 294 288 284 287 289 290 288 284 284 286 285 283 283 280 281 281 283 287 288 291 291 289 292 289 284 281 278 279 277 269 275 276 274 277 277 280 277 275 279 285 285 286 285 279 281 281 277 275 279 278 277 280 279 286 288 290 292 294 294 289 278 279 286 290 290 291 290 289
299 299 300 300 301 301 302 303 303 304 304 305 302 299 299 302 300 299 296 290 283 283 288 290 290 285 284 284 283 287 287 287 287 283 281 285 285 287 287 289 289 292 293 284 280 279 276 273 276 273 276 283 279 279 276 278 276 277 279 277 278 279 278 278 276 273 277 278 278 280 281 286 288 289 291 293 294 292 282 278 281 287 289 289 289 288 288
299 299 300 300 301 302 302 303 304 304 305 305 303 301 299 301 302 300 295 291 283 283 289 291 293 290 292 293 290 291 291 291 286 284 283 281 287 291 292 293 291 287 288 281 279 278 276 279 280 277 276 279 283 279 279 276 277 280 278 276 279 278 276 277 275 276 274 276 278 278 282 287 290 292 293 294 290 281 279 284 290 289 288 289 289 288 289
299 300 300 301 301 302 303 304 304 305 305 305 304 297 300 301 302 302 297 288 282 285 288 290 293 292 293 291 289 289 289 288 286 284 278 282 287 289 286 284 288 286 283 281 280 280 278 279 280 279 276 276 282 281 279 280 281 280 279 280 277 279 279 276 273 272 274 273 276 277 276 285 291 291 290 290 284 283 287 289 290 290 289 289 289 290 289
300 300 300 301 302 302 303 304 305 305 305 305 304 299 299 300 301 302 301 291 283 283 285 290 292 291 292 293 295 293 289 289 287 287 285 286 289 283 279 277 283 283 283 277 280 281 277 278 282 279 282 280 283 282 278 276 279 285 283 280 282 285 279 276 277 280 276 272 272 275 284 287 292 290 283 286 287 289 290 289 287 290 290 289 289 290 290
300 300 301 301 302 303 303 304 305 305 306 305 304 300 295 300 301 302 303 298 287 286 289 290 291 292 294 294 295 295 297 296 295 293 289 287 289 287 284 284 285 286 287 283 283 281 283 282 283 277 278 280 282 277 278 274 273 278 284 283 277 284 282 283 280 283 278 277 282 286 289 290 291 291 289 289 290 291 291 290 289 289 289 292 290 290 291
300 300 301 301 302 303 303 304 305 305 305 306 304 298 296 296 298 301 301 291 287 288 289 289 288 290 294 295 296 297 296 297 298 294 291 290 287 288 288 287 290 291 290 285 283 283 282 281 278 280 280 280 278 278 280 277 275 280 280 288 286 290 290 290 287 284 289 290 290 291 290 290 290 292 292 291 291 291 291 290 288 288 290 290 289 290 290
300 300 301 301 302 303 303 304 304 305 305 306 304 297 297 297 299 293 291 287 284 287 287 288 287 284 287 292 296 295 295 296 300 299 296 294 285 287 289 291 292 290 290 292 287 288 283 282 284 282 280 282 281 278 278 280 282 286 285 285 288 288 286 286 285 286 284 279 289 288 288 290 290 290 292 292 292 291 290 289 289 289 289 289 289 289 289
300 300 301 301 302 303 303 304 305 305 305 305 304 302 301 297 296 297 289 287 284 280 282 282 283 292 293 293 294 294 295 298 302 299 296 294 293 288 290 297 295 291 291 292 288 288 283 284 283 280 280 283 284 280 284 283 283 286 281 285 284 283 289 285 285 285 283 283 288 289 290 291 291 291 290 289 290 291 291 291 291 291 291 291 291 291 290
300 300 301 301 302 303 303 304 304 305 305 305 306 298 296 297 299 296 294 291 285 282 282 281 287 294 291 294 293 294 296 297 297 299 299 298 296 299 298 294 292 293 291 289 291 286 283 283 282 280 281 282 285 281 280 285 285 283 284 283 285 287 290 281 285 283 286 289 289 289 289 289 289 290 290 290 290 290 290 291 291 291 290 289 289 289 289
300 300 301 301 302 303 303 304 304 304 304 305 303 297 298 297 300 300 296 291 284 283 281 283 284 289 292 293 294 295 297 296 297 297 297 298 298 296 295 293 292 291 292 289 285 285 284 283 282 283 282 283 284 283 285 286 283 280 279 285 288 286 281 285 285 281 281 282 284 287 282 281 285 286 288 289 290 290 289 289 289 289 288 288 288 287 286
299 300 301 301 302 303 303 304 304 304 304 304 302 298 296 296 298 299 295 292 289 284 282 281 285 288 292 294 296 295 296 297 296 296 295 295 295 295 293 292 291 290 286 287 286 285 284 285 285 282 280 284 283 284 283 283 283 282 281 282 285 284 285 282 281 282 281 286 288 288 287 287 287 288 289 289 290 290 289 289 288 289 289 288 287 286 286
300 300 301 302 302 303 303 304 304 303 304 302 297 294 292 296 296 299 301 297 289 284 281 283 285 288 287 289 295 294 296 296 295 294 294 294 294 294 293 292 290 287 288 285 284 283 283 282 281 284 284 286 284 281 280 280 278 278 280 286 287 287 287 284 286 287 287 290 288 288 287 286 288 289 290 290 290 290 289 289 289 289 288 288 287 288 287
300 301 301 302 302 302 303 303 304 303 303 296 291 287 285 291 292 298 299 301 293 286 284 283 283 284 289 292 292 293 294 295 295 294 293 293 292 292 292 291 289 289 288 286 286 283 283 283 280 282 286 287 283 279 276 279 277 280 284 286 287 287 288 288 289 288 287 290 290 290 289 290 291 290 290 290 291 291 289 289 289 288 288 287 288 286 286
300 301 301 302 302 302 303 304 304 304 301 292 288 284 281 283 290 297 302 299 294 288 282 283 284 282 285 291 291 293 292 294 293 292 292 290 290 290 291 292 289 289 287 284 283 283 281 281 278 283 287 289 280 275 280 278 277 280 285 286 287 288 288 287 288 289 290 290 291 291 291 290 289 290 289 289 289 290 289 288 291 292 290 289 287 287 287
301 301 301 302 302 303 303 304 304 303 295 294 290 288 287 290 292 299 302 300 295 289 283 283 282 282 282 284 290 293 294 293 291 288 288 290 291 290 291 290 289 289 287 283 282 281 283 280 280 283 284 286 284 276 278 278 279 280 285 286 287 288 288 288 287 288 289 290 290 288 287 286 289 289 287 289 289 289 290 290 290 289 293 290 288 288 287
301 301 302 302 302 303 303 304 304 303 295 298 302 303 302 303 304 303 302 296 291 286 282 281 279 280 281 285 290 292 293 289 290 285 289 289 289 287 287 286 286 288 294 287 282 281 282 278 279 283 284 282 278 276 279 275 280 283 285 287 287 287 287 287 288 289 289 290 291 286 285 286 287 289 289 290 289 289 288 289 288 288 288 288 288 287 287
301 302 302 302 303 304 304 304 304 303 300 294 292 292 296 304 302 303 297 291 289 286 282 283 279 279 281 284 287 290 291 284 286 282 284 290 287 286 284 283 286 284 287 284 282 283 282 283 282 279 280 280 277 280 277 281 283 284 285 286 286 286 287 287 287 287 288 289 289 290 290 289 288 286 288 288 287 288 289 287 289 289 287 287 286 287 287
302 302 302 303 303 304 304 303 295 296 294 294 296 294 294 304 305 304 301 290 285 283 281 281 279 278 280 278 278 286 289 286 286 284 283 287 286 287 284 283 282 283 284 285 281 277 280 281 282 281 280 278 276 276 276 282 283 284 285 285 285 286 286 285 284 286 285 285 286 285 285 286 287 286 286 286 286 287 287 287 288 288 286 286 287 286 285
302 303 303 304 304 303 296 299 294 292 290 291 292 299 304 306 305 298 297 293 290 280 277 279 277 278 276 276 278 284 290 285 285 284 286 281 284 286 282 282 282 282 283 279 280 279 279 284 281 279 273 276 276 276 282 284 284 285 286 286 286 287 287 286 286 285 285 286 286 286 286 286 286 285 286 286 286 286 286 286 285 287 287 287 286 285 284
303 303 304 302 295 293 288 290 294 294 294 296 299 305 305 303 298 296 292 294 296 290 282 278 281 280 279 280 278 283 285 282 281 282 281 281 282 280 278 277 280 282 280 279 276 278 283 285 278 274 273 274 278 282 284 286 285 285 285 286 286 286 286 286 286 286 285 286 286 286 286 285 284 285 285 286 286 286 286 286 285 286 285 285 285 285 285
303 302 292 291 286 284 286 287 292 297 303 303 301 293 291 290 287 283 284 284 288 291 282 281 278 282 281 280 282 286 283 280 280 281 281 280 281 282 278 281 281 281 276 277 281 284 277 277 275 274 276 280 282 283 284 285 286 286 286 286 285 287 287 286 287 287 285 284 283 283 284 285 285 284 286 285 285 286 287 287 286 286 287 287 286 285 284
300 292 289 288 286 286 286 291 298 302 298 298 291 287 285 283 283 284 282 282 283 284 281 283 283 281 280 281 283 286 286 281 277 276 278 282 280 280 278 278 280 278 277 275 280 283 277 276 271 270 274 279 281 284 284 284 284 285 287 287 286 286 287 287 288 288 286 285 286 286 286 286 286 284 284 284 284 284 284 285 285 285 285 284 285 284 285
292 291 287 283 285 287 292 296 300 296 292 288 284 283 283 283 283 281 280 282 281 280 281 284 282 280 282 285 284 285 287 282 277 278 277 281 283 279 280 278 280 277 274 272 278 280 275 272 273 271 275 277 281 283 283 285 286 284 284 285 285 286 287 288 288 289 289 287 287 287 286 287 288 287 285 285 285 285 284 284 285 285 285 286 284 284 286
288 287 285 284 288 289 291 294 293 287 285 282 282 281 280 281 282 281 280 277 279 281 282 284 284 285 285 282 281 281 287 286 283 281 278 280 283 282 279 278 278 276 273 275 280 277 273 272 271 272 276 278 280 283 284 284 285 284 284 285 286 286 286 285 285 285 286 286 286 287 287 287 287 286 286 286 286 286 286 286 285 285 284 285 285 286 285
289 289 289 292 292 292 291 287 284 284 282 282 280 278 279 279 281 281 280 279 279 278 285 282 283 283 285 284 285 283 285 286 281 278 279 280 281 277 278 277 277 273 272 277 278 275 272 271 272 273 276 280 282 283 283 284 284 284 284 285 286 286 286 286 286 286 287 288 287 287 286 286 285 286 286 286 286 287 286 285 285 284 285 285 285 286 285
299 298 295 292 288 284 283 284 283 281 278 277 274 276 277 277 279 278 278 278 279 281 283 287 285 285 289 286 285 286 285 287 286 281 278 279 282 277 275 275 274 274 277 279 275 272 269 269 270 276 281 282 283 283 283 285 284 284 284 285 286 287 287 287 287 286 286 287 287 286 286 286 285 285 285 286 286 285 285 284 286 285 284 284 284 284 284
294 295 291 286 284 284 283 280 283 282 277 276 276 274 275 275 277 276 277 281 281 283 284 285 284 283 283 284 282 284 282 285 284 279 279 278 278 275 274 274 276 276 278 276 274 272 270 270 276 281 282 283 285 282 283 284 285 284 284 284 285 286 286 285 285 286 285 285 286 285 285 285 285 285 286 286 288 287 285 285 285 285 285 284 285 285 284
287 282 279 278 278 280 281 274 278 277 275 276 278 274 273 273 273 272 277 278 283 285 283 283 283 284 284 284 283 282 283 283 281 280 279 277 275 275 274 275 275 274 274 272 271 271 273 275 278 280 283 283 284 284 284 285 285 286 285 284 285 285 286 286 286 286 285 286 285 285 286 285 286 285 285 286 286 288 288 288 286 285 285 285 285 286 285
283 281 277 277 275 277 278 274 274 275 276 277 276 277 277 277 277 278 280 281 282 283 285 284 283 284 282 282 283 282 278 276 277 279 279 276 274 276 277 277 275 272 271 270 269 269 273 277 280 283 285 285 285 284 285 285 286 285 286 285 285 285 286 286 285 286 286 285 284 285 284 284 285 285 285 285 285 286 287 287 286 287 285 286 286 287 286
285 283 279 277 274 276 279 276 274 276 277 278 278 279 280 282 281 281 281 284 286 285 284 283 283 284 282 282 282 282 279 278 278 279 277 277 276 278 279 277 273 270 269 269 267 267 268 275 282 285 285 285 285 285 285 285 286 286 286 285 284 285 285 285 285 285 284 284 284 285 285 285 284 285 285 286 286 285 285 286 286 286 287 287 286 285 286
282 282 279 275 273 276 277 278 278 278 279 281 279 280 281 282 283 284 285 285 286 286 286 284 284 283 283 282 280 279 279 278 278 279 279 279 278 273 270 271 270 270 269 270 269 272 276 279 283 284 286 286 286 285 285 285 285 286 286 285 285 285 285 285 284 284 285 285 285 285 284 284 285 286 287 287 286 286 286 286 286 285 286 286 286 285 285
285 279 278 274 276 276 276 276 280 280 279 278 279 280 282 283 282 281 283 284 286 286 285 284 280 279 280 279 277 280 279 278 275 277 278 274 272 271 269 268 268 271 272 271 271 274 278 283 285 286 286 286 286 286 286 286 286 286 286 286 286 286 285 286 285 285 285 286 285 285 285 285 286 286 286 286 288 287 286 286 286 286 285 286 286 286 285
284 280 281 280 279 277 277 278 280 278 277 279 280 280 280 281 281 284 284 286 285 284 284 284 282 281 280 279 277 276 277 276 276 278 273 271 270 271 270 268 267 271 271 273 274 275 279 284 286 286 286 286 286 287 286 286 286 287 287 287 287 286 286 286 285 285 286 286 286 286 285 285 285 285 287 287 286 284 285 286 286 286 286 285 286 285 286
282 282 280 277 279 275 279 277 276 277 279 279 280 281 282 281 282 286 285 285 286 283 280 280 279 278 278 276 274 273 277 279 278 276 273 271 273 271 269 270 268 272 275 277 279 280 284 286 287 287 286 286 287 287 287 287 287 287 287 287 287 287 287 287 286 286 285 285 285 284 285 286 287 287 285 284 285 285 286 286 286 286 286 286 284 284 285
279 279 279 279 280 280 281 281 279 280 280 281 280 281 283 284 284 286 286 287 284 284 280 279 279 277 274 275 274 277 280 276 275 275 275 274 275 272 269 268 271 277 278 280 281 282 284 286 288 287 287 287 287 287 287 287 287 286 286 286 286 287 286 286 287 286 285 284 285 286 286 284 284 284 284 284 285 286 286 286 287 286 284 284 285 285 285
Wind_Speed
8 9 11 11 10 9 10 12 12 12 13 5 4 4 2 2 1 2 10 10 5 3 2 0 1 1 3 4 8 7 8 5 6 7 6 2 1 1 4 2 1 4 2 4 4 5 6 3 4 3 4 1 2 5 5 1 5 5 1 2 0 6 3 6 2 2 0 3 3 3 6 5 8 7 4 3 1 1 3 2 6 6 1 3 2 4 2
8 9 11 10 9 10 10 11 12 12 11 7 4 2 2 2 1 3 4 7 2 1 2 2 1 2 4 3 6 4 4 2 7 3 5 1 3 1 1 4 4 2 3 3 2 0 6 4 4 3 1 3 4 6 6 4 2 1 4 3 3 2 1 7 3 2 1 2 3 6 6 7 5 2 4 3 1 3 2 5 1 7 1 3 7 7 4
8 10 11 9 9 10 10 11 12 13 13 10 4 2 3 2 1 3 1 2 2 1 3 4 2 1 1 2 6 4 2 6 10 5 4 2 0 1 3 1 1 3 2 4 5 8 7 3 3 3 2 3 1 7 8 6 5 3 2 6 4 7 1 3 6 6 5 2 2 2 2 2 1 2 6 5 6 2 2 2 1 3 0 3 5 5 4
9 10 10 9 10 11 11 11 11 12 12 11 4 1 3 1 4 1 2 2 2 3 1 0 1 0 1 3 6 2 4 2 4 6 0 2 2 4 0 1 4 5 6 7 7 8 6 5 2 2 2 2 2 3 7 7 3 8 12 5 5 4 2 3 3 8 10 6 3 1 4 4 5 4 9 9 2 3 3 5 4 4 3 3 2 9 13
10 10 10 10 10 11 12 12 12 12 11 11 3 2 2 2 2 3 2 1 3 4 2 1 1 1 1 1 1 3 5 2 2 3 2 5 2 3 6 3 3 2 7 4 6 4 10 11 9 4 4 1 0 5 6 5 8 6 5 5 6 5 6 7 9 12 5 3 6 4 5 9 5 6 5 7 7 4 7 4 2 2 10 3 1 10 9
10 10 10 10 10 11 12 12 12 11 11 11 2 2 2 1 3 1 2 2 4 3 6 4 3 3 2 4 1 3 1 2 1 3 2 0 5 3 7 9 5 2 5 4 5 2 5 5 4 2 3 3 3 5 7 5 7 5 3 3 5 5 5 1 11 10 10 7 8 11 12 12 10 10 8 10 8 12 8 3 2 2 2 8 10 10 7
9 10 9 10 10 11 12 13 13 11 11 6 2 2 2 2 3 2 1 0 1 4 3 2 5 4 6 3 2 2 1 3 1 0 2 6 5 3 3 6 6 5 3 7 3 1 6 3 2 1 1 2 1 2 2 3 6 5 3 4 3 7 5 2 9 13 10 8 7 8 14 10 11 11 11 8 11 12 13 12 9 9 8 9 14 13 10
10 9 10 10 10 12 13 14 13 11 12 4 2 3 1 1 2 2 2 1 1 1 1 2 3 4 6 5 5 1 1 4 3 3 4 3 3 3 10 4 9 10 10 6 5 0 3 6 4 1 3 1 1 1 2 1 3 4 3 1 3 6 1 5 1 7 6 6 6 9 10 13 13 11 10 9 8 11 9 10 11 16 13 12 13 13 8
10 9 9 10 11 12 13 14 13 11 9 1 2 3 1 3 2 2 2 1 2 0 1 3 2 1 1 2 3 2 1 5 5 4 3 3 4 3 8 6 9 8 11 10 6 2 6 7 6 4 4 4 2 3 1 3 3 2 2 2 2 7 5 1 1 8 4 2 8 9 13 15 14 11 10 9 8 7 6 4 4 4 10 10 11 7 4
10 10 9 10 11 12 13 14 13 12 9 2 3 3 2 3 2 2 1 1 1 0 1 0 2 1 3 2 2 1 1 1 3 6 6 8 4 5 8 4 11 5 11 7 2 3 3 4 4 4 3 1 1 1 3 2 2 1 2 0 4 2 8 5 3 9 4 5 0 1 2 5 7 6 5 7 7 5 5 8 10 7 1 6 6 4 5
10 10 9 10 10 11 13 14 13 12 6 4 3 3 4 5 4 4 1 1 1 1 1 2 1 1 0 0 4 3 4 6 4 6 0 2 4 3 5 9 8 3 4 1 1 4 3 4 4 4 8 9 9 5 7 9 6 2 5 3 2 4 9 5 2 6 4 4 1 3 2 3 2 1 3 2 0 5 10 6 7 9 6 4 5 8 8
10 10 10 10 11 12 13 13 13 13 6 2 2 2 2 4 3 2 2 3 1 2 1 2 4 0 4 1 5 5 8 8 4 4 7 1 0 1 7 6 7 4 2 1 1 1 2 3 4 7 10 11 12 13 14 11 9 6 1 7 5 7 5 4 2 7 6 2 1 3 2 2 3 4 5 8 7 10 13 11 10 9 10 12 11 10 8
9 10 10 11 11 13 13 14 14 12 9 3 1 2 2 3 1 3 2 2 1 2 2 2 2 3 4 7 7 5 6 4 4 7 5 5 4 3 1 4 3 2 1 1 4 7 4 3 4 3 5 6 7 12 15 13 10 8 8 6 10 5 7 3 4 2 4 2 1 3 1 4 4 5 7 6 6 5 9 11 9 8 7 8 9 9 10
10 10 11 12 12 13 13 14 14 13 12 6 2 2 1 1 2 3 2 1 2 2 1 2 4 6 8 7 6 2 3 6 3 4 5 1 4 3 1 2 1 1 4 5 7 5 4 5 4 4 3 6 4 5 4 4 8 10 9 8 4 10 5 6 4 3 5 3 3 5 6 6 5 4 2 2 1 0 1 4 3 5 4 6 10 10 9
10 10 11 11 12 13 14 14 14 14 14 10 3 2 1 2 2 2 2 0 0 3 1 3 3 2 3 2 2 4 6 2 7 3 2 2 3 0 1 1 2 3 1 3 2 5 2 2 2 3 1 3 1 1 2 2 4 5 6 4 6 3 9 4 7 1 2 6 5 4 1 3 5 1 1 1 1 1 2 5 3 2 6 3 10 10 9
10 10 11 12 13 14 14 15 14 15 13 12 4 4 5 4 4 3 3 1 0 6 6 2 3 2 4 3 2 5 2 3 1 1 4 4 2 2 2 2 2 1 4 6 3 4 2 3 2 4 2 2 1 1 0 2 2 3 6 7 13 11 10 7 8 5 4 3 5 3 4 1 2 5 1 2 3 1 2 4 2 1 3 3 9 9 8
10 11 11 12 13 15 15 15 15 13 12 10 5 5 5 2 6 6 3 2 1 1 4 3 1 1 5 3 5 6 2 2 0 4 2 1 1 1 1 3 2 5 2 4 5 3 4 5 2 4 0 2 1 3 1 2 1 2 5 8 13 11 5 5 7 5 1 4 3 3 0 2 2 1 1 3 3 1 0 1 2 2 3 5 4 8 9
11 12 12 13 14 14 16 16 15 14 12 11 6 6 6 3 5 5 1 1 0 3 4 3 1 4 4 2 3 1 3 2 4 2 3 1 1 2 2 3 2 2 2 2 1 5 3 2 3 2 2 1 1 2 4 2 2 1 2 2 2 5 4 6 6 4 6 5 2 2 1 0 1 1 3 5 3 0 1 4 2 2 4 5 6 4 2
12 12 13 13 14 15 16 17 15 14 13 12 7 7 6 6 7 6 0 0 2 3 7 4 2 3 1 2 2 2 1 1 2 4 1 3 2 1 0 0 0 1 7 3 4 3 2 1 0 2 3 1 2 2 0 4 1 1 2 1 3 3 3 1 3 5 4 1 4 2 1 0 1 1 2 3 2 4 4 3 3 6 6 5 6 7 4
13 13 13 14 15 15 16 16 16 15 14 13 7 5 8 2 8 12 7 1 1 3 3 3 2 3 0 2 2 3 1 5 2 6 4 3 2 2 2 1 4 3 2 4 3 1 3 2 0 1 3 1 1 4 4 1 1 1 1 1 2 1 3 1 2 1 2 2 4 2 2 2 1 1 1 3 1 1 4 7 7 6 7 8 7 7 7
14 14 14 14 15 15 15 15 16 15 14 12 7 5 6 2 8 9 5 1 1 5 4 4 1 2 1 3 1 2 3 3 3 3 4 3 0 4 3 3 3 1 1 1 3 0 2 1 0 1 1 3 1 3 4 3 2 1 2 1 2 1 4 1 1 2 4 2 2 2 1 1 2 2 2 0 2 7 7 8 8 6 6 7 7 7 7
15 15 15 15 16 16 17 17 17 16 15 13 8 1 3 3 4 6 5 1 1 2 1 2 1 2 1 1 2 3 3 2 2 4 7 3 1 1 3 3 2 1 1 3 4 2 2 2 1 2 3 2 3 3 3 5 1 3 2 2 3 4 3 2 5 1 2 2 2 2 3 4 5 7 8 8 7 6 7 8 8 8 6 6 7 9 7
15 15 16 16 17 17 18 18 18 17 16 15 6 3 3 4 1 2 7 4 3 1 3 5 3 2 3 1 2 4 1 1 6 3 4 6 2 1 3 1 0 1 1 0 4 6 4 6 2 4 4 2 6 4 4 3 3 2 3 5 6 5 8 6 8 8 11 10 7 6 7 8 10 9 7 9 9 7 7 8 8 4 6 5 7 6 6
15 16 16 17 17 18 18 19 19 19 17 15 6 3 3 3 4 2 2 4 4 3 4 6 6 3 1 3 3 2 1 1 1 0 2 5 5 0 1 1 2 2 2 0 4 6 5 3 3 2 4 2 4 4 5 4 4 5 6 4 2 1 1 1 7 8 2 5 3 9 9 8 9 10 8 7 7 6 5 6 6 7 6 6 5 6 6
16 16 17 17 18 18 19 19 20 20 18 16 8 3 4 3 1 1 3 1 2 3 3 3 3 3 4 4 3 1 1 1 3 4 4 4 7 7 4 1 1 4 2 1 1 8 4 5 1 3 5 1 4 2 0 5 4 1 4 2 1 3 1 8 5 7 4 6 7 8 8 7 6 6 8 8 6 7 6 6 6 7 6 6 6 6 5
16 16 17 18 18 18 19 19 20 19 17 17 9 0 2 1 5 1 6 5 3 4 4 1 3 4 3 5 3 3 3 3 5 7 6 3 4 7 7 1 6 4 4 3 7 8 4 5 4 1 5 1 2 4 1 2 6 2 5 1 2 3 1 3 2 7 9 11 9 8 9 8 6 4 3 4 6 7 7 7 8 7 7 5 3 3 5
16 16 17 17 18 18 19 19 19 18 17 16 6 1 1 1 4 6 1 1 4 3 4 3 3 5 5 6 4 4 3 5 8 9 8 7 9 8 9 7 9 6 8 7 4 5 4 4 5 4 3 2 3 3 4 6 4 3 3 1 2 6 6 7 12 11 6 5 9 11 9 5 2 3 4 4 4 7 8 7 7 7 6 5 5 3 3
16 16 17 17 18 18 18 19 18 17 16 14 5 3 1 5 4 3 2 2 2 5 4 0 2 2 4 7 7 5 6 8 9 10 9 9 10 10 9 7 6 6 4 6 6 7 5 8 7 0 2 1 5 5 2 2 4 6 5 1 0 6 9 4 6 8 7 6 11 1 5 10 5 7 4 5 5 7 8 8 7 5 5 5 5 4 4
16 16 17 17 17 18 17 18 17 17 18 12 2 3 2 1 1 6 5 2 6 7 4 1 2 6 4 2 6 7 8 10 12 10 10 10 11 10 10 9 8 5 7 6 5 3 5 2 1 3 2 2 5 2 4 4 3 2 2 0 4 1 4 2 4 10 8 11 5 5 7 9 7 5 6 5 4 6 6 5 5 6 5 4 5 5 5
15 16 16 17 17 18 18 17 16 17 15 5 1 5 5 2 2 6 6 5 2 4 4 3 5 0 3 2 4 5 6 9 11 13 12 10 10 9 6 8 5 4 6 4 4 6 1 3 2 2 3 2 4 2 4 0 3 1 2 5 5 4 4 6 4 9 11 6 7 7 7 10 8 8 6 6 5 6 7 7 6 5 4 4 4 3 1
15 16 17 17 17 17 17 17 16 15 11 3 4 2 3 2 2 2 8 6 3 6 3 4 2 2 3 0 1 6 5 6 8 8 8 5 5 4 2 6 5 3 8 5 6 1 2 4 2 2 2 5 4 3 3 3 3 2 2 3 5 7 7 5 6 6 8 7 7 6 7 7 5 5 4 4 4 4 4 3 4 5 5 4 4 4 4
16 17 17 17 17 17 17 16 15 11 5 6 3 1 2 2 2 7 7 4 1 5 4 3 2 3 1 3 2 2 1 2 3 4 4 3 6 5 9 7 4 3 5 5 2 3 4 1 3 3 4 4 6 3 3 4 6 3 2 4 5 7 6 7 7 8 8 8 11 11 8 5 7 8 6 7 5 4 7 7 6 4 5 3 1 0 1
17 17 17 17 17 16 16 15 15 8 2 4 7 6 8 10 10 8 4 3 5 2 3 4 2 1 1 1 4 4 4 4 7 5 4 3 2 3 5 5 4 6 4 7 4 3 1 2 1 7 3 2 4 3 4 3 3 4 5 7 6 6 7 6 7 7 8 8 8 8 8 8 9 7 5 7 5 6 5 5 4 3 3 2 1 2 4
18 17 17 16 16 15 14 15 13 4 3 3 2 2 2 4 4 5 2 4 4 1 3 2 1 2 0 3 4 3 3 3 0 2 4 3 0 5 1 4 5 5 6 5 1 3 1 4 6 2 3 5 3 5 4 2 2 5 5 6 6 7 7 8 7 8 8 8 5 8 10 7 4 4 4 5 3 1 2 3 5 5 4 3 3 5 3
17 17 16 15 14 13 13 9 4 4 1 1 1 4 2 7 6 3 1 1 2 2 3 2 2 3 1 3 2 2 1 4 2 1 5 2 2 3 1 5 5 7 1 3 6 2 3 1 1 6 1 4 4 2 0 4 4 5 6 6 5 8 7 7 5 6 5 4 5 4 5 6 7 5 5 5 4 4 5 4 4 5 4 5 5 5 4
16 16 13 13 12 7 2 1 3 2 2 1 1 5 8 10 6 3 3 2 3 3 2 1 2 2 3 3 3 0 1 3 1 1 0 0 3 3 5 3 6 2 1 4 1 3 3 1 3 2 2 5 0 2 6 6 8 7 9 8 7 9 8 8 7 6 5 6 8 6 7 6 7 6 5 5 5 5 5 5 4 4 5 5 6 5 3
14 13 11 7 2 2 2 1 2 2 1 5 10 12 11 3 1 2 5 3 2 3 3 2 4 3 4 2 1 3 3 3 3 4 5 4 1 2 5 4 3 1 5 4 4 4 1 1 7 3 3 4 2 4 7 7 8 8 7 8 6 5 6 5 6 8 8 8 9 7 7 6 5 5 6 6 7 6 6 5 6 7 6 6 4 3 5
11 6 2 2 2 2 1 1 1 6 11 11 7 3 5 7 0 2 3 2 2 3 3 3 2 1 1 3 3 1 3 1 2 3 1 0 3 2 1 3 0 2 2 0 1 1 2 5 3 3 1 2 1 1 5 5 6 5 6 5 4 5 7 6 6 9 7 6 5 5 4 6 6 5 8 7 7 8 9 7 7 7 7 6 6 4 3
4 2 4 3 3 0 1 2 6 15 5 1 3 1 1 1 1 1 0 1 2 1 2 3 3 1 4 4 1 2 4 4 2 3 3 2 3 0 1 4 2 4 1 2 1 3 3 3 3 3 1 2 1 1 0 3 2 4 6 6 5 6 8 7 8 10 9 8 9 8 10 10 8 4 2 5 2 2 4 5 4 3 4 4 3 2 3
6 5 2 1 1 2 4 6 11 6 3 1 2 2 1 1 2 1 1 1 1 2 1 1 1 2 2 7 6 1 0 3 3 1 2 1 1 4 1 3 1 4 0 1 2 2 4 2 1 2 1 1 2 1 2 4 6 3 4 4 5 5 7 10 7 7 9 6 6 7 5 6 9 9 7 6 7 6 3 3 4 4 4 4 3 4 4
4 1 2 1 3 3 5 7 6 2 1 1 1 1 1 0 0 0 1 2 0 1 0 2 1 2 1 2 2 3 2 3 1 3 4 3 1 3 3 1 1 3 0 1 1 2 2 2 1 3 6 4 4 3 2 2 5 3 3 5 6 6 5 4 4 3 5 6 5 5 5 5 5 7 7 8 8 7 6 6 5 4 4 4 3 3 2
1 1 1 2 2 3 4 2 3 1 1 0 2 0 1 1 1 1 1 2 2 1 1 2 1 4 2 3 3 4 1 0 2 2 2 2 1 2 1 0 1 2 1 2 1 2 3 2 1 1 4 4 3 1 4 6 5 6 4 6 7 7 8 7 6 2 4 8 6 7 5 5 5 6 7 7 7 7 6 4 4 3 5 4 1 1 2
7 4 2 1 1 1 0 1 2 1 1 0 2 0 1 1 1 3 1 1 1 2 1 0 1 0 1 3 2 1 2 1 1 1 3 1 1 2 2 1 1 1 1 0 2 2 2 2 3 6 5 5 4 5 5 5 5 6 6 6 7 7 9 8 8 7 4 8 9 8 7 7 6 6 5 6 6 5 2 4 5 5 4 3 3 3 4
2 1 1 2 1 1 1 1 1 1 1 1 2 2 1 0 1 1 1 2 1 1 1 6 3 5 3 2 3 0 1 1 4 3 2 0 1 0 1 1 1 1 0 2 1 2 3 2 6 8 8 4 4 4 4 5 6 6 5 5 6 7 7 7 7 8 6 4 6 5 5 5 5 3 3 5 8 8 4 2 1 1 1 2 3 3 3
0 1 2 1 1 1 2 1 2 2 2 2 1 1 3 4 4 2 4 3 2 5 1 4 5 6 4 1 2 1 1 2 1 3 1 1 2 1 2 1 1 1 2 2 0 1 1 1 2 3 6 7 7 5 4 6 8 10 9 6 6 7 8 9 7 7 6 6 6 6 6 5 6 5 5 5 5 6 8 6 5 3 3 4 4 3 2
0 1 1 2 2 2 1 0 0 0 2 2 2 6 4 5 5 4 4 1 4 3 7 5 5 6 3 1 4 2 0 2 2 1 0 2 2 1 0 0 2 2 1 2 1 4 6 5 7 10 11 10 8 7 6 7 6 7 10 10 7 7 8 8 7 7 7 6 5 6 6 5 6 6 5 5 5 5 5 5 5 5 4 4 5 4 3
1 0 2 1 2 1 1 1 2 3 2 3 5 6 6 7 6 3 1 1 4 5 6 1 3 4 6 0 1 1 2 1 2 1 1 1 1 0 1 1 1 0 2 2 2 3 3 5 8 10 10 8 7 7 7 8 7 8 9 8 6 6 6 7 7 7 5 5 5 6 5 6 5 5 5 4 2 3 5 5 5 5 6 5 4 3 3
1 1 1 1 2 1 1 4 1 2 2 3 3 5 5 2 1 1 1 1 5 5 7 5 4 2 4 2 4 2 0 0 2 1 1 1 1 2 1 0 0 1 2 4 5 5 4 5 9 9 10 10 11 10 8 8 6 8 8 8 8 7 6 7 6 5 6 7 7 7 6 5 6 6 6 6 5 4 4 4 4 3 2 2 2 1 2
1 1 1 2 1 2 2 2 2 1 5 3 3 1 3 3 5 5 2 2 6 5 4 6 3 4 1 1 2 1 1 1 2 1 1 2 1 2 2 1 1 2 4 4 4 5 7 9 10 11 11 10 9 9 9 8 9 9 10 10 9 9 8 8 8 7 6 7 7 7 6 5 6 5 5 5 6 5 4 2 2 2 3 4 4 3 3
0 1 1 1 1 2 2 0 0 4 5 4 2 4 3 4 2 3 2 5 3 5 3 5 3 4 1 1 1 2 0 0 1 0 2 0 1 1 2 0 3 4 2 3 4 4 3 6 10 11 11 11 10 10 9 7 9 9 8 8 8 8 8 8 7 7 8 8 7 7 6 5 5 6 7 8 6 3 1 2 3 4 3 2 4 3 2
0 0 2 2 3 2 1 1 1 4 6 5 1 4 6 6 6 5 2 5 4 5 4 3 1 2 1 2 2 1 1 1 2 2 3 2 1 3 3 3 4 7 6 5 5 5 7 10 11 12 11 11 10 9 9 10 9 9 8 8 8 7 7 8 8 7 5 5 6 8 8 7 8 6 3 4 5 5 4 2 1 0 2 1 1 2 2
1 0 1 2 1 2 2 1 2 6 7 5 2 3 2 4 4 3 3 7 5 7 4 1 2 2 2 1 2 1 0 2 0 0 1 2 2 2 3 5 4 7 8 4 4 6 6 8 12 15 14 13 12 10 9 8 8 7 7 7 7 8 8 7 7 6 5 5 6 7 6 4 4 4 4 5 5 5 5 3 0 0 1 1 1 1 2
Wind_Direction
325 327 333 329 325 334 339 335 340 343 340 332 358 317 256 243 350 46 149 176 201 39 69 91 51 236 239 293 287 257 258 257 287 317 304 341 73 7 31 322 54 353 89 69 74 98 75 21 111 146 89 46 325 287 332 133 47 79 14 55 323 88 72 74 10 9 332 274 253 34 46 71 57 34 49 49 63 151 168 173 175 120 144 63 26 67 131
331 333 325 318 332 340 334 336 345 345 345 334 332 302 309 15 295 83 177 197 279 65 137 178 241 268 272 239 254 263 256 285 296 277 293 351 346 78 11 349 42 86 21 75 69 315 99 2 68 65 114 58 314 346 33 101 58 88 202 133 228 78 307 109 124 37 346 342 333 2 354 50 67 39 339 337 346 60 153 105 71 91 206 169 122 159 176
334 334 326 332 338 338 335 343 350 343 346 343 346 307 330 322 247 49 313 228 204 247 191 126 174 226 302 336 308 305 287 217 222 237 303 329 80 86 22 357 279 29 9 72 56 38 108 120 4 107 89 106 320 6 41 52 88 31 150 109 110 84 161 91 133 150 150 167 190 193 69 55 338 51 343 6 41 53 88 115 20 108 238 92 110 102 101
342 335 330 340 336 339 342 346 344 339 334 340 308 319 257 150 106 94 168 256 194 260 238 1 155 342 43 353 276 236 256 284 232 201 254 49 21 62 342 87 69 44 49 43 38 36 20 101 190 67 58 338 12 350 11 48 92 90 67 56 73 110 80 64 157 155 177 195 191 227 119 48 55 328 16 350 356 4 95 99 92 162 174 81 328 157 136
346 339 338 336 341 340 340 338 341 334 331 331 330 276 279 312 123 129 140 188 235 262 324 252 106 204 169 167 250 235 225 258 311 12 89 358 28 56 45 352 49 356 65 75 59 17 67 57 78 27 97 6 231 339 26 14 21 64 68 18 86 77 71 360 72 57 79 92 69 60 82 103 71 51 2 9 27 49 67 82 139 181 115 10 67 140 110
345 342 343 340 338 334 338 337 335 328 319 326 263 298 229 90 274 277 200 138 203 207 285 214 230 251 11 276 286 266 327 7 103 332 70 296 24 91 347 22 17 72 131 126 84 37 66 33 87 38 9 87 357 30 358 38 337 28 57 16 98 112 98 348 80 62 59 48 79 88 77 78 85 69 48 41 37 54 71 51 28 72 141 166 147 125 97
347 343 345 346 339 339 336 335 334 330 322 323 198 289 83 97 267 258 316 124 245 164 216 188 196 224 209 259 262 291 88 69 58 143 350 27 356 64 85 347 3 53 45 91 106 61 86 17 359 126 48 65 68 48 356 8 10 45 67 37 104 95 46 40 99 89 56 46 54 79 93 84 60 47 54 48 58 68 75 74 64 71 67 90 109 96 93
346 348 345 338 338 339 338 337 340 340 335 316 253 244 311 307 0 349 357 43 207 216 164 173 149 203 210 204 254 202 313 68 5 29 78 86 54 11 80 57 47 60 61 64 82 254 158 159 123 259 122 20 81 142 181 186 338 43 57 80 347 105 153 169 79 83 56 49 68 72 82 80 68 46 40 45 56 64 55 75 78 84 69 81 90 97 94
347 348 339 339 338 338 341 339 345 346 348 282 264 286 251 294 280 328 305 3 275 163 151 152 170 177 255 195 280 55 349 89 93 55 18 133 110 70 118 105 72 49 72 65 84 122 108 101 114 165 137 121 211 119 233 128 95 9 36 34 13 66 150 140 40 94 82 73 98 100 90 81 73 49 29 23 16 38 12 45 344 111 127 117 100 84 108
351 345 343 339 341 343 341 342 347 352 348 311 329 289 358 282 278 278 126 148 285 179 203 42 84 334 224 162 285 140 288 257 77 72 23 35 67 126 119 83 86 34 62 60 104 190 143 135 162 142 137 136 127 133 129 125 139 117 81 49 75 99 133 129 127 91 129 187 163 133 125 87 54 31 50 67 76 101 83 47 42 34 84 121 126 131 117
351 344 343 340 342 341 340 345 346 353 2 23 337 337 331 20 337 344 57 120 320 56 43 335 112 228 145 249 87 55 89 56 60 110 25 22 27 0 106 90 89 97 74 109 220 180 181 161 123 71 69 67 65 56 73 53 46 122 142 70 50 94 126 122 129 99 155 191 323 303 67 98 182 13 290 250 247 103 72 48 48 34 62 88 78 112 121
347 345 340 345 344 343 343 344 344 345 357 332 17 295 342 354 349 273 353 87 270 0 99 218 174 267 105 56 85 89 74 67 57 103 110 84 157 62 78 63 88 69 256 324 32 102 138 59 42 50 52 56 63 56 52 48 18 13 81 120 126 119 85 91 60 111 152 170 10 59 73 232 24 48 61 82 100 89 88 74 63 76 80 93 99 106 108
346 341 346 346 348 344 347 341 339 337 343 336 324 284 33 30 279 308 326 92 266 339 40 339 354 84 101 95 74 48 89 84 73 91 96 113 58 28 28 111 110 194 189 61 41 47 66 88 51 63 27 10 35 52 37 33 18 17 31 91 121 128 109 127 50 61 79 64 32 135 222 104 94 100 103 122 108 115 85 61 42 48 80 106 110 116 117
343 345 349 349 347 345 342 337 331 335 335 335 326 301 351 319 326 328 350 79 309 232 221 33 16 77 81 73 102 55 55 46 21 65 79 19 108 79 0 79 41 135 120 100 59 73 48 27 65 59 4 8 3 32 325 28 43 35 22 11 84 124 93 101 80 348 128 115 61 81 123 131 151 159 206 229 202 253 137 121 44 31 15 123 127 128 127
348 348 348 345 344 340 336 333 334 332 333 336 331 317 250 189 224 249 315 274 264 304 71 63 315 331 88 57 78 70 56 346 65 29 308 356 68 263 131 5 15 70 53 72 28 41 136 97 76 99 348 61 94 193 338 37 312 45 48 39 62 104 127 211 106 310 100 126 103 118 138 224 195 190 105 34 311 247 145 101 118 53 8 118 138 138 136
352 350 348 346 340 336 329 331 330 331 331 337 316 295 264 205 178 218 273 358 215 43 331 314 246 223 82 44 48 108 125 66 25 12 4 351 351 358 351 21 28 94 52 72 84 93 62 104 174 90 161 186 232 83 288 346 4 324 31 32 67 47 75 107 103 140 93 95 121 154 183 233 68 152 250 343 313 160 141 76 139 54 19 32 143 142 150
356 350 349 343 336 330 328 327 328 330 331 328 313 296 283 165 184 191 191 209 121 93 252 302 93 118 79 18 19 36 60 79 148 93 59 14 317 300 346 0 348 56 86 78 11 65 46 58 104 121 96 152 96 168 117 56 66 334 332 15 43 51 11 45 72 88 73 130 97 163 102 189 222 245 293 281 317 281 153 351 236 131 50 56 98 142 162
357 352 350 344 333 331 327 327 329 331 327 320 298 295 271 156 190 154 215 178 125 358 324 331 101 51 62 175 130 187 71 40 44 37 102 259 327 32 309 7 15 0 98 87 51 68 69 94 114 127 102 251 158 58 145 168 74 286 356 348 27 13 18 39 133 129 91 79 87 53 74 285 300 336 305 307 268 117 142 222 131 142 77 74 96 92 76
356 352 350 342 334 331 329 327 327 328 326 325 316 292 255 206 178 189 132 70 95 69 292 307 122 109 180 89 109 127 111 133 154 97 35 25 50 287 91 269 219 279 5 131 68 91 108 350 39 112 124 316 25 125 277 50 242 322 75 29 44 28 84 10 66 59 98 104 93 146 120 235 66 247 306 299 85 156 219 120 133 112 92 85 92 99 96
354 351 348 341 334 329 328 326 326 328 326 330 324 280 273 199 194 185 165 166 118 87 331 344 21 58 279 123 80 63 26 25 40 122 153 141 279 38 28 25 329 75 4 60 53 213 98 146 155 123 56 109 63 146 64 78 189 84 130 245 112 206 91 105 118 173 59 49 93 84 156 169 66 324 344 14 149 260 114 115 87 97 103 99 87 95 104
353 349 346 338 331 329 327 326 324 323 324 324 328 299 314 231 181 211 229 115 115 67 340 304 44 352 76 63 76 163 136 148 166 112 209 140 189 86 124 196 222 115 194 127 129 74 137 99 211 97 180 123 256 57 156 145 43 348 119 168 109 253 88 115 177 191 134 106 135 193 336 336 274 187 163 309 79 134 129 119 109 96 98 97 98 91 105
348 346 343 337 333 331 328 327 325 324 324 331 337 203 247 265 190 202 198 126 142 109 175 269 249 289 277 210 177 162 137 144 206 150 137 107 339 152 191 130 166 145 199 118 53 47 16 133 80 65 101 60 33 88 159 75 104 282 350 74 73 315 131 219 128 66 143 163 123 59 47 51 43 96 105 105 101 108 115 112 114 119 107 114 111 119 119
344 343 342 338 336 333 330 328 327 325 325 331 340 184 245 310 345 129 142 187 262 351 357 3 356 345 344 334 206 190 206 172 112 88 127 114 84 33 117 90 20 201 100 99 164 150 173 122 152 158 83 70 140 114 44 101 171 329 66 6 114 108 103 108 84 82 83 64 79 98 76 76 81 73 90 104 103 97 107 114 115 111 118 125 126 122 122
343 345 342 339 337 334 331 329 328 326 326 331 335 192 260 238 253 79 61 69 99 91 3 11 62 352 296 341 342 351 50 13 256 184 167 120 108 42 341 247 163 46 20 290 171 131 180 111 160 132 105 210 98 66 115 68 81 131 114 122 108 311 312 49 109 167 105 78 93 100 106 98 96 96 88 89 100 110 109 106 107 117 110 100 102 115 121
342 341 340 338 337 334 332 330 329 328 329 333 342 240 249 323 330 81 126 83 5 84 129 318 356 253 256 262 265 327 4 357 90 87 72 78 124 139 143 118 148 140 156 164 75 71 46 102 60 59 97 260 112 80 269 111 143 202 81 93 106 19 86 80 80 73 74 122 126 97 87 82 88 104 117 113 109 107 110 113 114 113 116 123 134 128 123
340 338 338 338 335 334 332 331 330 328 330 330 336 9 80 12 295 95 83 72 96 106 89 42 336 327 342 25 11 299 307 31 75 64 52 91 118 126 142 78 35 35 94 73 68 85 96 60 85 86 99 350 82 116 62 290 124 113 103 158 217 151 130 92 183 100 91 95 91 98 92 90 83 76 79 105 121 118 108 108 113 119 120 124 107 110 138
339 337 336 336 334 333 333 331 330 330 333 335 348 270 176 54 6 48 61 156 88 11 38 75 281 305 3 32 339 339 350 33 58 60 51 41 76 77 83 84 88 53 67 50 37 98 66 81 76 58 64 93 103 107 126 75 94 85 77 24 83 74 83 129 110 110 135 157 151 148 127 135 124 126 133 123 115 115 112 109 112 118 123 122 109 69 67
337 336 334 333 333 333 331 330 329 332 332 336 335 345 349 70 23 46 78 109 113 167 158 200 29 293 291 49 1 2 8 47 66 70 65 58 59 68 72 83 87 72 28 67 36 37 49 77 86 184 84 12 56 52 27 118 82 53 42 335 101 125 157 144 128 144 154 144 153 156 109 125 151 148 140 127 128 122 123 128 134 138 139 135 123 111 92
333 333 332 332 330 331 329 327 328 331 333 337 334 357 11 61 46 46 45 49 103 93 97 185 296 18 66 273 315 16 14 56 63 68 70 61 59 62 73 67 81 109 88 75 99 96 79 101 164 74 68 185 95 71 25 52 53 68 299 29 83 79 138 141 138 101 103 137 146 126 136 135 154 148 140 138 135 128 126 135 141 150 156 154 143 154 150
331 331 331 329 328 327 327 324 326 334 335 352 53 47 35 330 343 45 18 38 70 120 85 77 74 255 288 359 353 351 22 44 58 60 58 60 55 56 55 68 38 40 83 102 108 81 25 84 352 358 354 20 106 141 69 54 77 12 333 73 78 73 80 86 95 128 144 154 140 146 141 135 138 145 146 146 149 142 144 154 156 154 164 158 151 172 186
333 329 327 326 324 324 323 323 325 336 343 43 72 55 38 56 307 333 14 11 29 102 123 95 103 288 36 338 53 360 353 32 56 61 52 53 69 59 8 76 47 42 72 28 45 67 72 28 52 359 1 44 94 86 138 103 79 38 347 99 113 100 88 84 76 88 112 119 113 95 95 91 86 83 95 139 153 144 129 139 166 164 165 159 185 182 187
328 325 322 322 321 320 317 316 323 335 1 54 96 155 179 189 240 313 341 336 29 58 69 71 19 17 313 324 319 289 355 6 47 24 18 20 36 15 43 50 83 22 102 105 141 64 25 282 90 34 52 345 66 88 61 71 99 141 146 102 99 103 102 93 88 95 98 107 108 97 95 123 144 152 185 192 173 169 162 170 174 172 167 167 148 146 241
321 319 318 315 316 316 311 313 317 332 284 247 250 260 260 266 280 293 313 341 54 76 116 79 125 203 80 254 322 344 21 26 22 28 32 353 52 23 48 2 21 41 22 76 9 91 236 86 6 57 326 27 78 87 82 75 132 162 148 123 115 113 109 106 109 112 118 126 131 138 158 171 198 197 168 161 162 166 165 161 154 111 110 131 215 256 277
317 313 310 309 308 309 311 311 309 307 327 30 42 357 334 11 6 25 21 78 95 116 74 101 55 54 322 310 74 303 46 103 0 32 73 355 65 64 5 35 7 79 349 91 258 68 6 65 63 112 349 17 20 79 71 77 110 129 117 110 116 110 115 113 121 131 146 152 153 159 171 169 120 75 89 124 137 103 106 108 130 140 164 187 230 233 241
311 307 302 301 301 303 309 316 6 51 65 313 254 257 265 329 337 305 38 98 79 349 29 21 108 89 36 0 65 274 324 81 53 352 110 336 41 96 35 54 340 75 321 75 48 66 60 359 185 65 357 304 44 50 159 166 137 120 110 109 113 113 104 108 142 149 135 121 114 116 103 115 123 133 147 146 153 156 148 167 168 148 161 213 230 239 218
304 300 299 297 295 302 320 337 53 41 29 344 249 268 320 327 340 53 116 110 120 151 83 237 78 115 136 128 128 227 16 52 334 5 107 161 13 19 87 103 66 345 262 70 114 358 57 316 67 73 299 67 164 165 163 161 149 151 142 147 159 141 154 154 163 146 129 128 129 127 130 138 143 162 161 163 162 162 163 158 186 183 197 214 232 240 225
304 301 301 305 333 49 19 239 292 68 351 259 274 297 314 348 331 47 11 29 7 89 134 150 80 198 151 180 253 280 73 118 343 40 351 47 127 307 51 41 87 340 37 13 23 55 314 50 96 66 17 106 105 156 158 162 154 156 165 168 176 137 121 129 139 121 107 118 123 126 133 134 135 145 152 165 177 169 147 172 182 177 197 208 208 197 214
307 319 34 38 37 46 9 338 349 303 310 300 338 11 358 28 80 340 0 37 290 56 359 66 124 225 10 81 124 254 76 256 44 114 352 251 74 16 22 88 234 74 57 327 11 176 55 36 53 105 6 273 282 191 182 180 176 163 154 160 174 147 138 134 132 115 110 103 95 89 98 131 147 178 152 167 162 165 177 178 179 185 174 177 183 175 152
42 35 42 32 89 101 182 262 331 324 320 252 43 69 340 3 55 24 312 282 13 41 304 103 181 149 94 64 340 299 137 161 45 39 100 282 108 174 30 86 310 71 8 52 312 48 53 356 5 34 21 321 70 205 112 180 162 178 172 174 157 151 142 154 154 142 152 167 176 174 159 159 162 188 160 124 134 119 139 144 138 158 142 145 148 151 150
26 40 23 21 76 248 275 297 332 325 54 48 325 102 101 334 95 258 301 65 359 300 29 92 202 156 174 152 151 101 357 80 113 149 139 323 351 130 241 92 267 89 96 94 240 31 109 114 311 75 210 277 225 233 165 181 150 183 160 144 141 156 158 159 178 170 166 165 152 165 173 163 155 151 163 150 139 126 111 137 149 145 139 155 164 147 160
12 24 26 50 266 309 302 309 331 46 63 37 7 4 64 334 335 192 68 54 122 220 221 156 32 67 28 59 73 131 281 88 139 127 110 91 247 89 62 102 217 81 354 74 275 70 76 73 22 140 212 227 211 185 169 170 136 141 153 147 141 139 137 131 136 140 121 117 133 144 152 147 140 140 153 149 145 147 159 159 166 178 150 135 153 202 214
232 200 204 282 289 293 324 355 54 49 6 67 120 238 256 221 326 7 108 134 226 225 332 88 108 139 200 169 171 130 11 195 123 98 96 98 315 110 161 254 12 108 171 233 142 70 77 104 153 243 255 235 245 203 163 143 138 133 143 141 137 138 134 132 123 126 156 144 149 146 145 141 143 142 149 143 146 153 158 160 152 172 192 200 175 147 132
280 246 134 337 357 345 77 66 314 107 126 47 48 67 342 102 212 163 248 281 296 97 242 64 173 132 28 64 46 65 169 236 124 11 72 130 303 57 84 24 60 87 188 353 73 60 74 154 196 231 211 201 202 181 204 155 148 137 148 146 137 139 135 132 133 134 144 137 140 139 143 140 146 154 144 132 125 130 161 177 175 181 212 198 200 215 181
111 125 49 342 74 292 76 157 266 47 351 39 108 175 223 267 281 39 67 230 227 90 166 130 185 111 150 319 137 296 11 16 50 80 55 332 83 32 61 137 158 246 347 58 58 143 211 211 200 190 183 174 181 195 193 145 134 122 117 122 119 118 114 112 112 106 94 83 88 100 110 115 110 105 127 141 145 152 149 113 121 149 189 126 159 191 179
90 0 34 18 33 275 72 285 329 119 187 241 136 175 149 172 233 181 183 243 104 186 158 83 116 96 113 276 42 14 99 171 311 99 220 82 52 5 109 190 224 38 110 180 1 346 340 253 249 159 162 171 190 192 191 158 150 142 144 134 125 124 123 120 119 117 125 125 131 121 121 129 128 144 158 161 164 149 141 158 173 161 198 154 142 135 195
100 171 93 83 328 313 107 165 6 23 289 147 191 194 170 222 167 211 248 124 100 109 125 146 101 93 66 286 128 193 0 84 58 32 125 70 101 100 242 291 67 74 24 68 132 199 214 217 180 178 177 175 174 178 176 160 147 132 127 140 160 145 139 131 135 134 140 133 127 116 128 124 131 138 163 176 165 162 156 154 158 162 150 129 149 167 183
85 12 90 111 100 265 90 145 235 205 178 203 219 183 190 197 197 195 213 149 138 167 108 102 106 151 132 269 44 14 33 49 94 280 70 64 142 248 2 110 220 175 151 198 220 243 257 236 202 177 165 162 160 169 167 151 152 147 145 144 151 149 142 135 138 136 142 126 115 112 122 133 140 138 127 119 157 187 168 159 176 170 149 171 195 179 143
135 235 90 99 233 188 152 243 203 299 246 198 230 200 223 161 105 278 253 156 142 129 123 109 94 39 43 312 83 137 235 13 90 315 119 158 36 42 16 35 301 246 181 162 223 218 225 204 177 173 170 165 162 164 160 152 155 145 143 149 153 148 148 136 129 140 138 125 126 126 128 130 138 144 147 153 159 192 187 187 175 172 137 101 96 116 141
154 120 149 197 197 159 228 255 109 263 272 295 293 163 140 132 210 239 252 150 136 155 158 120 173 91 92 280 90 68 45 336 97 238 16 34 102 188 153 202 191 248 254 172 209 203 209 188 172 160 155 158 168 162 161 157 152 148 149 152 158 160 155 146 149 154 141 128 129 133 145 153 144 138 134 136 147 191 211 190 152 161 165 159 166 163 168
99 343 27 80 342 312 253 151 69 284 294 317 174 199 204 182 231 261 184 114 144 119 82 60 55 90 200 94 36 21 303 300 136 57 64 106 192 175 84 110 231 195 250 237 223 237 195 144 141 150 160 163 166 163 153 157 151 151 155 150 147 147 150 143 146 151 145 144 145 146 151 141 139 139 154 172 182 167 112 141 189 193 191 202 154 152 168
342 127 229 167 149 214 153 316 249 289 306 301 253 223 169 189 172 177 210 125 129 72 52 135 186 100 84 36 58 72 241 192 73 151 158 195 196 112 161 194 239 214 229 235 211 191 158 156 155 153 159 165 169 164 156 156 158 155 153 147 153 148 144 144 149 154 151 142 141 136 142 166 180 170 154 124 135 126 98 75 65 129 137 151 136 151 181
62 102 258 284 213 195 192 220 224 224 229 230 212 253 142 163 205 166 146 114 101 112 170 189 94 78 72 138 213 181 40 47 73 66 23 278 151 144 211 199 223 220 213 203 196 173 171 164 161 159 163 165 168 162 156 156 151 147 149 152 152 146 145 150 156 155 143 148 154 157 159 145 118 125 131 115 106 111 125 136 179 59 136 123 153 161 123